This demonstration page uses our WeatherBlox Daily Observations layout. Learn more.

Left ArrowRight Arrow

53.62937, 11.41316

Hourly Observations for July 12, 2022

Temp ( °F °C ) Dew Point ( °F °C ) Humidity (%) Winds ( mph kmh ) Pressure ( in mb ) Visibility ( mi km ) Precip ( " mm )
12:20 am 00:20 Mostly Clear 57 14 55 13 94 94 W 3 6 30.21 1023 30 48 N/A
12:50 am 00:50 Mostly Clear 57 14 55 13 94 94 W 5 7 30.21 1023 30 48 N/A
1:20 am 01:20 Mostly Clear 57 14 54 12 88 88 W 3 6 30.21 1023 30 48 N/A
1:50 am 01:50 Mostly Clear 55 13 54 12 94 94 W 3 6 30.21 1023 30 48 N/A
2:20 am 02:20 Mostly Clear 55 13 54 12 94 94 W 3 6 30.21 1023 30 48 N/A
2:50 am 02:50 Mostly Clear 54 12 54 12 100 100 VRB 2 4 30.21 1023 30 48 N/A
3:20 am 03:20 Mostly Clear 54 12 52 11 94 94 WSW 3 6 30.21 1023 30 48 N/A
3:50 am 03:50 Mostly Clear 54 12 52 11 94 94 WSW 3 6 30.21 1023 30 48 N/A
4:20 am 04:20 Mostly Clear 54 12 52 11 94 94 VRB 2 4 30.21 1023 30 48 N/A
4:50 am 04:50 Mostly Clear 54 12 52 11 94 94 VRB 2 4 30.21 1023 1 1 N/A
5:20 am 05:20 Mostly Cloudy 52 11 52 11 100 100 VRB 2 4 30.21 1023 0 1 N/A
5:50 am 05:50 Mostly Sunny 54 12 52 11 94 94 W 3 6 30.24 1024 1 1 N/A
6:20 am 06:20 Mostly Sunny 54 12 54 12 100 100 WSW 3 6 30.24 1024 7 11 N/A
6:50 am 06:50 Mostly Sunny 55 13 54 12 94 94 WSW 3 6 30.24 1024 7 11 N/A
7:20 am 07:20 Mostly Sunny 57 14 55 13 94 94 VRB 2 4 30.24 1024 7 11 N/A
7:50 am 07:50 Mostly Cloudy 59 15 55 13 88 88 WNW 7 11 30.24 1024 30 48 N/A
8:20 am 08:20 Mostly Cloudy 59 15 55 13 88 88 WNW 7 11 30.24 1024 30 48 N/A
8:50 am 08:50 Mostly Cloudy 61 16 55 13 83 83 WNW 8 13 30.24 1024 30 48 N/A
9:20 am 09:20 Mostly Cloudy 61 16 54 12 77 77 W 8 13 30.24 1024 30 48 N/A
9:50 am 09:50 Mostly Sunny 63 17 55 13 77 77 W 7 11 30.24 1024 30 48 N/A
10:20 am 10:20 Mostly Sunny 63 17 55 13 77 77 WNW 7 11 30.24 1024 30 48 N/A
10:50 am 10:50 Mostly Sunny 66 19 57 14 73 73 W 7 11 30.24 1024 30 48 N/A
11:20 am 11:20 Mostly Sunny 66 19 55 13 68 68 W 9 15 30.24 1024 7 11 N/A
11:50 am 11:50 Mostly Sunny 68 20 57 14 69 69 WNW 9 15 30.24 1024 30 48 N/A
12:20 pm 12:20 Mostly Sunny 68 20 55 13 64 64 WNW 8 13 30.24 1024 30 48 N/A
12:50 pm 12:50 Mostly Sunny 72 22 59 15 65 65 WNW 7 11 30.24 1024 7 11 N/A
1:20 pm 13:20 Mostly Sunny 72 22 57 14 61 61 NW 9 15 30.24 1024 7 11 N/A
1:50 pm 13:50 Mostly Sunny 73 23 57 14 57 57 VRB 7 11 30.21 1023 7 11 N/A
2:20 pm 14:20 Mostly Sunny 73 23 57 14 57 57 WNW 7 11 30.21 1023 7 11 N/A
2:50 pm 14:50 Mostly Sunny 77 25 59 15 54 54 NW 8 13 30.21 1023 30 48 N/A
3:20 pm 15:20 Mostly Sunny 77 25 57 14 51 51 WNW 8 13 30.21 1023 30 48 N/A
3:50 pm 15:50 Mostly Sunny 77 25 55 13 47 47 NW 8 13 30.21 1023 30 48 N/A
4:20 pm 16:20 Mostly Sunny 77 25 55 13 47 47 WNW 7 11 30.21 1023 30 48 N/A
4:50 pm 16:50 Mostly Sunny 77 25 55 13 47 47 NW 7 11 30.21 1023 7 11 N/A
5:20 pm 17:20 Mostly Sunny 77 25 54 12 44 44 WNW 8 13 30.21 1023 7 11 N/A
5:50 pm 17:50 Mostly Sunny 77 25 55 13 47 47 WNW 8 13 30.18 1022 7 11 N/A
6:20 pm 18:20 Mostly Sunny 75 24 55 13 50 50 W 8 13 30.18 1022 7 11 N/A
6:50 pm 18:50 Mostly Sunny 75 24 57 14 54 54 WNW 8 13 30.18 1022 7 11 N/A
7:20 pm 19:20 Mostly Sunny 75 24 57 14 54 54 WNW 7 11 30.18 1022 7 11 N/A
7:50 pm 19:50 Mostly Sunny 73 23 55 13 53 53 WNW 6 9 30.18 1022 7 11 N/A
8:20 pm 20:20 Mostly Sunny 72 22 55 13 57 57 WNW 5 7 30.18 1022 7 11 N/A
8:50 pm 20:50 Mostly Sunny 72 22 55 13 57 57 WNW 6 9 30.18 1022 7 11 N/A
9:20 pm 21:20 Mostly Sunny 68 20 57 14 69 69 W 5 7 30.18 1022 30 48 N/A
9:50 pm 21:50 Mostly Cloudy 68 20 57 14 69 69 WNW 3 6 30.18 1022 30 48 N/A
10:20 pm 22:20 Mostly Clear 64 18 57 14 78 78 VRB 2 4 30.18 1022 30 48 N/A
10:50 pm 22:50 Mostly Clear 64 18 57 14 78 78 VRB 2 4 30.18 1022 30 48 N/A
11:20 pm 23:20 Mostly Cloudy 63 17 57 14 83 83 VRB 2 4 30.15 1021 30 48 N/A
11:50 pm 23:50 Mostly Cloudy 63 17 57 14 83 83 VRB 2 4 30.15 1021 30 48 N/A

Powered by AerisWeather